Location: Home
(42.5358°N, 72.7383°W)
Time: 00:25:09
(UTC-05:00)

Vanguard 1 - Pass Details

Date: 04 December 2021
Orbit: 652 x 3830 km, 34.2° (Epoch: 21 January)

Event Time Altitude Azimuth Distance (km) Brightness Sun altitude
Rises 04:39:54 0° 279° (W) 7,959 - -25.9°
Reaches altitude 10° 04:45:51 10° 275° (W) 6,804 - -24.8°
Exits shadow 04:54:24 27° 264° (W) 5,109 13.1 -23.3°
Maximum altitude 05:05:31 48° 211° (SSW) 3,422 12.6 -21.2°
Drops below altitude 10° 05:17:40 10° 141° (SE) 4,341 14.1 -19.1°
Sets 05:20:32 0° 135° (SE) 4,989 14.7 -18.5°
